TIME,DELAY(SENSOR),PRES,OXYGEN,RAWTEMP,T(OPTODE),TCPHASE,FLUOR,BETA(BETA700),BETA(BETA412),BETA(BETA440),CDOM,C(CSC),ED(ED412.20),ED(ED444.00),ED(ED489.60),ED(ED554.30),LU(LU412.10),LU(LU443.90),LU(LU489.70),LU(LU554.70),COMP,TILTX,TILTY,CHECK
1346987271,5808,890.4299926757812000,33.1266403198242200,555.2280883789062000,4.6336941719055180,56.5391693115234400,54,101,100,79,83,15560,0,0,0,0,2147127021,2147779108,2147570852,2147574089,2950,3,13,59502
1346990867,5809,972.3200073242188000,38.5158882141113300,562.9345092773438000,4.3949151039123535,55.7681694030761700,55,100,101,77,81,15559,0,0,0,0,2147121398,2147778002,2147574290,2147572141,3456,3,13,11003
1346994467,5809,991.4099731445312000,39.4953804016113300,564.3944702148438000,4.3496208190917970,55.6333503723144500,55,101,101,79,81,15558,0,0,0,0,2147126116,2147775158,2147570541,2147572644,3568,3,13,59618
1346998067,5811,998.3099975585938000,38.1516189575195300,565.5426025390625000,4.3139929771423340,55.8525581359863300,56,96,101,79,83,15558,0,0,0,0,2147122249,2147774848,2147570130,2147573732,690,3,13,52189
1347001667,5809,1006.1199951171875000,37.5582618713378900,564.6702880859375000,4.3410639762878420,55.9281082153320300,55,98,100,78,81,15555,0,0,0,0,2147124827,2147777371,2147572352,2147572818,121,3,13,19810
1347005267,5811,1011.3200073242188000,37.6268615722656250,564.5159301757812000,4.3458561897277830,55.9198989868164060,55,101,100,79,82,15550,0,0,0,0,2147123117,2147779584,2147569252,2147572169,2403,3,13,60887
1347008867,5812,1008.8400268554688000,37.6148185729980500,564.4852905273438000,4.3468060493469240,55.9180107116699200,56,99,101,77,82,15557,0,0,0,0,2147121499,2147776210,2147572507,2147569654,1242,3,13,6382
1347012467,5810,1012.7199707031250000,37.3517112731933600,564.3369140625000000,4.3514099121093750,55.9590492248535160,55,98,101,78,83,15556,0,0,0,0,2147123145,2147776630,2147571922,2147569728,399,3,13,32525
1347016067,5810,1006.5999755859375000,37.1371307373046900,565.4390869140625000,4.3172039985656740,56.0019187927246100,56,99,101,79,83,15552,0,0,0,0,2147126052,2147778870,2147574427,2147570249,409,3,13,51882
1347019667,5811,1006.0599975585938000,37.0500183105468750,565.5103149414062000,4.3149971961975100,56.0200004577636700,54,99,101,78,81,15555,0,0,0,0,2147126811,2147779154,2147572891,2147574198,653,3,13,27394
1347023267,5809,1011.7800292968750000,37.2238082885742200,565.6610717773438000,4.3103141784667970,55.9902114868164060,54,99,100,77,82,15555,0,0,0,0,2147123675,2147780461,2147574317,2147573723,177,3,13,44232
1347026867,5807,1008.9400024414062000,37.8589210510253900,565.5916748046875000,4.3124690055847170,55.8905410766601560,54,99,101,77,82,15554,0,0,0,0,2147123958,2147777444,2147574564,2147572809,3582,3,13,55625
1347030467,5811,1009.0399780273438000,38.0629615783691400,566.0701293945312000,4.2976188659667970,55.8661308288574200,55,100,101,78,83,15551,0,0,0,0,2147122861,2147777792,2147572781,2147572160,52,3,13,50573
1347034067,5809,1009.2800292968750000,37.5546493530273440,566.4509277343750000,4.2857990264892580,55.9493293762207000,55,102,100,78,84,15555,0,0,0,0,2147123044,2147773540,2147569490,2147574500,112,3,13,49425
1347037667,5810,1009.3699951171875000,38.1657600402832000,566.9641113281250000,4.2698650360107420,55.8586082458496100,56,100,100,78,84,15553,0,0,0,0,2147123419,2147772169,2147573723,2147572425,103,3,13,33900
1347041267,5811,1008.2500000000000000,38.8413085937500000,567.6345825195312000,4.2490439414978030,55.7625999450683600,55,100,101,78,82,15554,0,0,0,0,2147122038,2147774619,2147570651,2147569490,38,3,13,41806
1347044867,5809,1013.9699707031250000,38.4513511657714840,566.6887817382812000,4.2784099578857420,55.8123893737793000,55,98,100,77,82,15551,0,0,0,0,2147121298,2147771629,2147574107,2147571209,190,3,13,63567
1347048467,5809,1006.8599853515625000,37.3140983581543000,566.5709228515625000,4.2820720672607420,55.9897193908691400,54,98,101,78,82,15553,0,0,0,0,2147124809,2147776704,2147571465,2147570752,288,3,13,15632
1347052067,5811,1019.2199707031250000,38.3101882934570300,566.0280761718750000,4.2989230155944820,55.8313484191894500,55,98,102,78,83,15552,0,0,0,0,2147122514,2147771236,2147570816,2147570395,3187,3,13,31386
1347055667,5812,1022.8800048828125000,37.5051689147949200,565.6256103515625000,4.3114171028137210,55.9488716125488300,54,107,101,77,82,15550,0,0,0,0,2147121261,2147770313,2147574418,2147571702,109,3,13,34484
1347059267,5810,1025.5300292968750000,37.0764694213867200,564.7365112304688000,4.3390121459960940,56.0058097839355500,55,99,100,78,81,15549,0,0,0,0,2147121170,2147778194,2147570459,2147571565,2934,3,13,24682
1347062867,5811,1024.6500244140625000,36.9396209716796900,564.8344116210938000,4.3359718322753910,56.0229988098144500,55,100,101,77,83,15548,0,0,0,0,2147124059,2147774582,2147578203,2147572114,3509,3,13,62193
1347066467,5809,1017.8499755859375000,36.2896690368652340,565.4876708984375000,4.3156948089599610,56.1359291076660160,55,99,100,78,82,15549,0,0,0,0,2147121179,2147769609,2147572891,2147572416,265,3,13,20784
1347070067,5812,1019.9400024414062000,37.5486488342285160,565.4312744140625000,4.3174481391906740,55.9417915344238300,54,98,99,77,83,15547,0,0,0,0,2147124406,2147773750,2147573092,2147572626,36,3,13,6011
1347073667,5807,1020.0599975585938000,37.2514686584472660,565.7327270507812000,4.3080921173095700,55.9851799011230500,56,103,100,85,83,15548,0,0,0,0,2147125083,2147776987,2147574802,2147572242,315,3,13,53997
1347077267,5810,1017.1300048828125000,37.4645881652832000,566.9398193359375000,4.2706179618835450,55.9690284729003900,55,99,100,78,82,15550,0,0,0,0,2147126107,2147773403,2147574921,2147571766,288,3,13,33573
1347080867,5810,1011.4400024414062000,37.8452606201171900,567.0407714843750000,4.2674851417541500,55.9068984985351560,55,99,103,78,81,15549,0,0,0,0,2147121179,2147771053,2147574537,2147572708,3559,3,13,16280
1347084467,5808,1014.9299926757812000,38.9257087707519500,567.0872802734375000,4.2660388946533200,55.7429313659668000,55,100,101,78,82,15548,0,0,0,0,2147123364,2147775369,2147575908,2147574454,180,3,13,47054
1347088067,5810,1016.7500000000000000,37.9943008422851560,566.9114990234375000,4.2714982032775880,55.8886909484863300,55,99,100,78,84,15542,0,0,0,0,2147122934,2147773522,2147578368,2147571008,20,3,13,47575
1347091667,5807,1021.5700073242188000,37.4584617614746100,566.2805786132812000,4.2910838127136230,55.9607810974121100,55,102,101,78,83,15544,0,0,0,0,2147123154,2147777353,2147575067,2147572361,3580,3,13,12452
1347095267,5811,1023.9799804687500000,37.6363182067871100,565.7780761718750000,4.3066830635070800,55.9317016601562500,55,98,101,78,82,15536,0,0,0,0,2147121280,2147776539,2147578221,2147573165,49,3,13,3435
1347098867,5807,1022.8800048828125000,36.7928581237793000,565.6378784179688000,4.3110327720642090,56.0537185668945300,55,99,101,78,82,15537,0,0,0,0,2147125760,2147774875,2147576594,2147569526,3562,3,13,16742
1347102467,5810,1019.4699707031250000,37.4582214355468750,566.0800170898438000,4.2973117828369140,55.9588584899902340,55,98,100,78,82,15536,0,0,0,0,2147123529,2147775158,2147579812,2147567990,3555,3,13,31921
1347106067,5809,1018.3400268554688000,37.5263214111328100,566.6096191406250000,4.2808699607849120,55.9521102905273440,56,97,100,78,82,15537,0,0,0,0,2147124086,2147777700,2147572507,2147569206,128,3,13,60829
1347109667,5807,1022.6599731445312000,37.9227294921875000,566.1489257812500000,4.2951741218566895,55.8879890441894500,55,98,101,78,84,15535,0,0,0,0,2147123382,2147771968,2147573577,2147571145,368,3,13,60792
1347113267,5808,1016.1099853515625000,37.3190612792968750,566.0264892578125000,4.2989730834960940,55.9821815490722660,54,98,101,78,83,15535,0,0,0,0,2147122596,2147777892,2147575579,2147570907,3170,3,13,34995
1347116867,5808,1019.5900268554688000,37.6276702880859400,566.5714111328125000,4.2820591926574710,55.9414787292480500,55,100,100,77,83,15535,0,0,0,0,2147126601,2147777124,2147572269,2147570944,587,3,13,26849
1347120467,5810,1018.9699707031250000,38.2732810974121100,567.1212768554688000,4.2649841308593750,55.8470802307128900,55,100,101,78,84,15533,0,0,0,0,2147127222,2147773878,2147575707,2147571922,3564,3,13,12321
1347124067,5810,1019.7999877929688000,38.4874114990234400,567.5435791015625000,4.2518692016601560,55.8151588439941400,55,98,100,79,82,15534,0,0,0,0,2147126518,2147771446,2147572032,2147572498,3434,3,13,50114
1347127667,5809,1023.1799926757812000,38.1195907592773440,566.6240234375000000,4.2804241180419920,55.8649406433105500,56,98,101,77,82,15533,0,0,0,0,2147123501,2147777874,2147576484,2147569536,144,3,13,46986
1347131267,5809,1019.4099731445312000,37.4039192199707000,566.8864135742188000,4.2722778320312500,55.9763298034668000,54,98,100,78,83,15530,0,0,0,0,2147120731,2147774528,2147574464,2147571858,202,3,13,60359
1347132356,5811,1022.6300048828125000,38.3514709472656250,566.9013061523438000,4.2718138694763180,55.8280601501464840,55,98,101,77,82,15532,0,0,0,0,2147122075,2147777883,2147573760,2147571474,92,3,13,40832
